Location: Arnolds Mill
(42.3415°N, 73.5951°W)
Time: 17:09:50
(UTC+00:00)

ISS - Visible Passes

Search period start: 23 June 2024 00:00
Search period end: 03 July 2024 00:00
Orbit: 410 x 425 km, 51.6° (Epoch: 23 June)

Date Brightness Start Highest point End Pass type
(mag) Time Alt. Az. Time Alt. Az. Time Alt. Az.
23 Jun -2.6 08:00:02 17° SSW 08:02:04 32° SE 08:05:06 10° ENE visible
24 Jun -1.9 07:13:46 19° SE 07:14:09 19° SE 07:16:36 10° E visible
25 Jun -3.8 08:00:20 20° SW 08:02:31 88° NW 08:05:53 10° NE visible
26 Jun -3.5 07:13:54 47° S 07:14:25 53° SE 07:17:41 10° ENE visible
27 Jun -2.1 06:27:23 25° ESE 06:27:23 25° ESE 06:29:19 10° ENE visible
27 Jun -2.6 08:00:17 12° W 08:03:02 37° NNW 08:06:12 10° NE visible
28 Jun -3.3 07:13:42 36° W 07:14:46 57° NNW 07:18:04 10° NE visible
29 Jun -3.4 06:27:02 61° ENE 06:27:02 61° ENE 06:29:52 10° ENE visible
29 Jun -1.6 08:00:55 10° WNW 08:03:37 22° NNW 08:06:20 10° NE visible
30 Jun -1.6 05:40:19 20° ENE 05:40:19 20° ENE 05:41:32 10° ENE visible
30 Jun -2.0 07:13:11 16° WNW 07:15:11 28° NNW 07:18:08 10° NE visible
01 Jul -2.7 06:26:23 37° NW 06:26:46 39° NNW 06:29:56 10° NE visible
01 Jul -1.0 08:01:53 10° NW 08:04:11 17° N 08:06:30 10° NE visible
02 Jul -2.3 05:39:29 36° NNE 05:39:29 36° NNE 05:41:41 10° NE visible
02 Jul -1.2 07:13:09 10° WNW 07:15:38 19° NNW 07:18:08 10° NE visible
